Погода в Соболохе

Россия / Республика Саха (Якутия)     66°15′10″N   143°18′48″E
темп.,
°C
ветер,
м/с
пор.,
м/с
влажн.,
%
обл.,
%
осадки,
мм/ч
давл.,
гПа
погр.,
м
27 февраля, сб
сб2723:00−35юв119727 0.0 103219
02:00−35вюв00987 0.0 103219
05:00−36сз0010016 0.0 103119
08:00−37юв0010030 0.0 103119
11:00−32ссв009024 0.0 103131
14:00−30ссв00820 0.0 1030187
17:00−29сз11900 0.0 102919
20:00−35сз111000 0.0 102919
28 февраля, вс
вс2823:00−36зюз001000 0.0 102919
02:00−36ссз011000 0.0 102819
05:00−37юз001000 0.0 102619
08:00−37зсз001000 0.0 102619
11:00−33сз11921 0.0 102532
14:00−30ссз118312 0.0 1024204
17:00−30сз019124 0.0 102319
20:00−35зсз0110068 0.0 102419
1 марта, пн
пн123:00−36зсз1110065 0.0 102419
02:00−37сз0010093 0.0 102319
05:00−38з0010081 0.0 102319
08:00−38з0010022 0.0 102319
11:00−34с009646 0.0 102333
14:00−32с118377 0.0 1022235
17:00−31с119178 0.0 102139
20:00−36ююв019984 0.0 102319
2 марта, вт
вт223:00−37юв0110054 0.0 102319
02:00−38юв1110061 0.0 102419
05:00−39вюв1110039 0.0 102319
08:00−39вюв0010023 0.0 102419
11:00−34всв009422 0.0 102435
14:00−32св00821 0.0 1024233
17:00−31ссз119030 0.0 102431
20:00−33сз119395 0.0 102519
3 марта, ср
ср323:00−34сз009498 0.0 102619
02:00−34вюв0095100 0.0 102519
05:00−34ссз0097100 0.0 102519
08:00−34всв0097100 0.0 102419
11:00−32ссз1193100 0.0 1023116
14:00−30сз2386100 0.0 1021434
17:00−29сз3488100 0.1 1019540
20:00−30ссз3399100 0.2 101956